Weather in Podymakhino

Russia / Irkutsk Oblast     56°58′35″N   106°10′45″E
В апреле 2022 года жителям России запретили посещать сайт meteo.paraplan.net по решению Генеральной прокуратуры. Аудитория сайта уменьшилась в 10 раз. Владельцы сайта не видят смысла в поддержке погодного сервера в таких условиях. Сайт будет закрыт в октябре.
temp.,
°C
wind,
m/s
gust,
m/s
humid.,
%
clouds,
%
prec.,
mm/h
press.,
hPa
HPBL,
m
3 october, mon
mon323:00−2wsw2794100 0.4 1032519
02:00−2w3794100 0.9 1033635
05:00−3w2792100 0.2 1034547
08:00−3w2794100 0.5 1034587
11:00−1wnw4669100 0.4 10351104
14:000w4672100 0.7 10341103
17:00−1w3582100 0.4 1034709
20:00−3w2596100 0.7 1035443
4 october, tue
tue423:00−3wsw129789 0.4 1036159
02:00−4wsw119974 0.6 103614
05:00−4w119847 0.2 103629
08:00−4w119473 0.2 103780
11:00−1wnw2371100 0.1 1036948
14:00−1wnw2364100 0.2 10351067
17:00−1wnw236784 0.1 1035837
20:00−6w11955 0.1 103613
5 october, wed
wed523:00−7sw119653 0.0 103614
02:00−7sw119872 0.0 103523
05:00−7sw119875 0.0 103427
08:00−6ssw129147 0.0 103467
11:00−1sw236797 0.0 1032927
14:00+1sw3358100 0.1 10291180
17:00+1ssw246597 0.0 1028754
20:00−5s21965 0.0 102834
6 october, thu
thu623:00−5s23947 0.0 102749
02:00−5sse239384 0.0 102565
05:00−4s249192 0.0 102481
08:00−3s2694100 0.3 1022201
11:000ssw2688100 0.5 1021442
14:00+1sw3693100 1.0 1021539
17:00+1w268684 0.5 1021728
20:00−5wsw119768 0.6 102315
7 october, fri
fri723:00−5sw119825 0.0 102412
02:00−5ssw1199100 0.0 102514
05:00−5sse009990 0.0 102512
08:00−5ene009825 0.0 102630
11:00+1ne007641 0.0 1026533
14:00+2nne1164100 0.1 10261077
17:000ne137740 0.1 1028109
20:00−4nnw139798 0.1 103151